{"data":{"norad_id":57823,"intl_designator":"2023-138R","name":"STARLINK-30407","alt_names":[],"object_type":"PAYLOAD","status":"ACTIVE","operator":null,"country":"US","launch_date":"2023-09-09","launch_site_code":"AFETR","launch_vehicle":null,"mission":null,"orbit_class":"UNKNOWN","rcs_meters":null,"size_class":null,"mass_kg":null,"dimensions":null,"purposes":["comms"],"wikipedia_slug":null,"has_3d_model":false,"image_url":null,"decayed_at":null,"tle_current":{"epoch":"2026-05-25T02:34:19.887168Z","epoch_age_seconds":66576,"freshness":"FRESH","line1":"1 57823U 23138R   26145.10717462  .00000156  00000+0  15171-4 0  9998","line2":"2 57823  43.0005  57.2157 0000832 247.1222 112.9542 15.27585923151658","mean_motion":15.27585923,"eccentricity":8.32e-5,"inclination_deg":43.0005,"raan_deg":57.2157,"arg_perigee_deg":247.1222,"mean_anomaly_deg":112.9542,"bstar":1.5171e-5,"rev_number":15165,"period_min":94.266383207565,"perigee_km":482.46051129658,"apogee_km":483.60220971176,"semimajor_km":6861.1683605042,"source":"CELESTRAK","updated_at":"2026-05-25T13:38:18.411455Z"}}}